Time,TemperatureF,DewpointF,PressureIn,WindDirection,WindDirectionDegrees,WindSpeedMPH,WindSpeedGustMPH,Humidity,HourlyPrecipIn,Conditions,Clouds,dailyrainin,SoftwareType,DateUTC
2013-06-26 00:04:00,81.4,78.9,29.95,ESE,119,12.5,17.5,92,0.00,CLR,,0.00,WeatherDisplay:10.37,2013-06-26 05:04:00,
2013-06-26 00:09:00,81.2,78.7,29.95,SE,145,14.0,20.7,92,0.00,CLR,,0.00,WeatherDisplay:10.37,2013-06-26 05:09:00,
2013-06-26 00:14:00,81.3,78.8,29.95,SE,127,14.0,21.2,92,0.00,CLR,,0.00,WeatherDisplay:10.37,2013-06-26 05:14:00,
2013-06-26 00:19:00,81.3,79.1,29.95,ESE,119,11.3,18.4,93,0.00,CLR,,0.00,WeatherDisplay:10.37,2013-06-26 05:19:00,
2013-06-26 00:24:00,81.3,79.1,29.95,ESE,120,11.6,16.7,93,0.00,CLR,,0.00,WeatherDisplay:10.37,2013-06-26 05:24:00,
2013-06-26 00:29:00,81.4,79.2,29.95,SSE,152,11.2,19.6,93,0.00,CLR,,0.00,WeatherDisplay:10.37,2013-06-26 05:29:00,
2013-06-26 00:34:00,81.2,79.0,29.95,SE,140,11.3,18.4,93,0.00,CLR,,0.00,WeatherDisplay:10.37,2013-06-26 05:34:00,
2013-06-26 00:39:00,81.3,78.8,29.95,SSE,148,10.4,20.0,92,0.00,CLR,,0.00,WeatherDisplay:10.37,2013-06-26 05:39:00,
2013-06-26 00:44:00,81.4,79.2,29.95,SE,144,12.0,20.2,93,0.00,CLR,,0.00,WeatherDisplay:10.37,2013-06-26 05:44:00,
2013-06-26 00:49:00,81.3,79.1,29.95,SE,143,11.3,19.6,93,0.00,CLR,,0.00,WeatherDisplay:10.37,2013-06-26 05:49:00,
2013-06-26 00:54:00,81.2,79.0,29.95,SSE,158,12.4,19.6,93,0.00,CLR,,0.00,WeatherDisplay:10.37,2013-06-26 05:54:00,
2013-06-26 00:59:00,81.2,79.0,29.95,SE,137,11.6,15.0,93,0.00,CLR,,0.00,WeatherDisplay:10.37,2013-06-26 05:59:00,
2013-06-26 01:04:00,81.2,79.0,29.95,SSE,147,13.9,19.6,93,0.00,CLR,,0.00,WeatherDisplay:10.37,2013-06-26 06:04:00,
2013-06-26 01:09:00,81.1,78.9,29.95,East,95,9.3,17.3,93,0.00,CLR,,0.00,WeatherDisplay:10.37,2013-06-26 06:09:00,
2013-06-26 01:14:00,81.1,78.9,29.95,SE,145,11.9,19.8,93,0.00,CLR,,0.00,WeatherDisplay:10.37,2013-06-26 06:14:00,
2013-06-26 01:19:00,81.0,78.8,29.96,ESE,116,11.0,18.3,93,0.00,CLR,,0.00,WeatherDisplay:10.37,2013-06-26 06:19:00,
2013-06-26 01:37:00,80.9,78.7,29.96,SE,145,11.1,20.1,93,0.00,CLR,,0.00,WeatherDisplay:10.37,2013-06-26 06:37:00,
2013-06-26 01:42:00,80.9,79.0,29.96,SE,145,11.4,17.3,94,0.00,CLR,,0.00,WeatherDisplay:10.37,2013-06-26 06:42:00,
2013-06-26 01:47:00,80.8,78.9,29.96,South,174,11.1,16.7,94,0.00,CLR,,0.00,WeatherDisplay:10.37,2013-06-26 06:47:00,
2013-06-26 01:52:00,80.9,79.0,29.96,SE,144,9.2,15.1,94,0.00,CLR,,0.00,WeatherDisplay:10.37,2013-06-26 06:52:00,
2013-06-26 01:57:00,80.7,78.8,29.96,SE,134,10.7,16.1,94,0.00,CLR,,0.00,WeatherDisplay:10.37,2013-06-26 06:57:00,
2013-06-26 02:02:00,80.7,78.8,29.96,SE,137,12.1,17.3,94,0.00,CLR,,0.00,WeatherDisplay:10.37,2013-06-26 07:02:00,
2013-06-26 02:07:00,80.6,78.7,29.96,SSE,158,11.0,16.1,94,0.00,CLR,,0.00,WeatherDisplay:10.37,2013-06-26 07:07:00,
2013-06-26 02:12:00,80.7,78.8,29.96,SE,137,10.7,17.3,94,0.00,CLR,,0.00,WeatherDisplay:10.37,2013-06-26 07:12:00,
2013-06-26 02:17:00,80.6,78.7,29.95,SE,133,10.6,17.3,94,0.00,CLR,,0.00,WeatherDisplay:10.37,2013-06-26 07:17:00,
2013-06-26 02:22:00,80.6,79.0,29.95,SSE,160,10.0,15.0,95,0.00,CLR,,0.00,WeatherDisplay:10.37,2013-06-26 07:22:00,
2013-06-26 02:27:00,80.6,78.7,29.95,SE,141,13.2,17.4,94,0.00,CLR,,0.00,WeatherDisplay:10.37,2013-06-26 07:27:00,
2013-06-26 02:32:00,80.5,78.9,29.95,SE,133,11.6,16.5,95,0.00,CLR,,0.00,WeatherDisplay:10.37,2013-06-26 07:32:00,
2013-06-26 02:37:00,80.5,78.6,29.95,South,175,12.2,19.6,94,0.00,CLR,,0.00,WeatherDisplay:10.37,2013-06-26 07:37:00,
2013-06-26 02:42:00,80.4,78.5,29.95,South,172,13.2,19.4,94,0.00,CLR,,0.00,WeatherDisplay:10.37,2013-06-26 07:42:00,
2013-06-26 02:47:00,80.5,78.9,29.95,SSE,168,11.5,18.8,95,0.00,CLR,,0.00,WeatherDisplay:10.37,2013-06-26 07:47:00,
2013-06-26 02:52:00,80.5,78.9,29.95,South,176,13.7,19.0,95,0.00,CLR,,0.00,WeatherDisplay:10.37,2013-06-26 07:52:00,
2013-06-26 02:57:00,80.5,78.6,29.94,SSE,150,12.4,20.8,94,0.00,CLR,,0.00,WeatherDisplay:10.37,2013-06-26 07:57:00,
2013-06-26 03:02:00,80.5,78.6,29.94,South,181,14.1,20.0,94,0.00,CLR,,0.00,WeatherDisplay:10.37,2013-06-26 08:02:00,
2013-06-26 03:07:00,80.5,78.6,29.94,SSE,150,14.1,18.4,94,0.00,CLR,,0.00,WeatherDisplay:10.37,2013-06-26 08:07:00,
2013-06-26 03:12:00,80.5,78.6,29.94,SSE,158,15.6,22.2,94,0.00,CLR,,0.00,WeatherDisplay:10.37,2013-06-26 08:12:00,
2013-06-26 03:17:00,80.7,78.8,29.94,SE,145,14.3,19.6,94,0.00,CLR,,0.00,WeatherDisplay:10.37,2013-06-26 08:17:00,
2013-06-26 03:22:00,80.7,78.8,29.94,South,169,10.0,20.7,94,0.00,CLR,,0.00,WeatherDisplay:10.37,2013-06-26 08:22:00,
2013-06-26 03:27:00,80.6,78.7,29.94,SSE,148,12.2,20.4,94,0.00,CLR,,0.00,WeatherDisplay:10.37,2013-06-26 08:27:00,
2013-06-26 03:32:00,80.6,78.7,29.94,SE,134,12.3,18.4,94,0.00,CLR,,0.00,WeatherDisplay:10.37,2013-06-26 08:32:00,
2013-06-26 03:37:00,80.5,78.6,29.94,SE,133,14.6,19.6,94,0.00,CLR,,0.00,WeatherDisplay:10.37,2013-06-26 08:37:00,
2013-06-26 03:42:00,80.5,78.6,29.94,SSE,161,11.2,18.4,94,0.00,CLR,,0.00,WeatherDisplay:10.37,2013-06-26 08:42:00,
2013-06-26 03:47:00,80.5,78.6,29.94,SSE,152,15.2,20.1,94,0.00,CLR,,0.00,WeatherDisplay:10.37,2013-06-26 08:47:00,
2013-06-26 03:52:00,80.5,78.9,29.94,South,172,12.7,17.3,95,0.00,CLR,,0.00,WeatherDisplay:10.37,2013-06-26 08:52:00,
2013-06-26 03:57:00,80.4,78.8,29.94,South,174,11.7,19.6,95,0.00,CLR,,0.00,WeatherDisplay:10.37,2013-06-26 08:57:00,
2013-06-26 04:02:00,80.4,78.8,29.94,SSE,148,12.2,23.6,95,0.00,CLR,,0.00,WeatherDisplay:10.37,2013-06-26 09:02:00,
2013-06-26 04:07:00,80.3,78.7,29.94,SE,133,15.6,21.6,95,0.00,CLR,,0.00,WeatherDisplay:10.37,2013-06-26 09:07:00,
2013-06-26 04:12:00,80.3,78.7,29.94,SSE,160,15.4,21.9,95,0.00,CLR,,0.00,WeatherDisplay:10.37,2013-06-26 09:12:00,
2013-06-26 04:17:00,80.5,78.9,29.94,SSE,160,15.9,22.6,95,0.00,,,0.00,WeatherDisplay:10.37,2013-06-26 09:17:00,
2013-06-26 04:22:00,80.4,78.8,29.94,SE,133,12.7,20.7,95,0.00,,,0.00,WeatherDisplay:10.37,2013-06-26 09:22:00,
2013-06-26 04:27:00,80.4,78.8,29.94,SE,145,13.4,23.0,95,0.00,,,0.00,WeatherDisplay:10.37,2013-06-26 09:27:00,
2013-06-26 04:32:00,80.4,78.8,29.94,South,172,13.3,21.4,95,0.00,CLR,,0.00,WeatherDisplay:10.37,2013-06-26 09:32:00,
2013-06-26 04:37:00,80.4,78.8,29.94,SSE,162,14.1,20.7,95,0.00,CLR,,0.00,WeatherDisplay:10.37,2013-06-26 09:37:00,
2013-06-26 04:42:00,80.4,78.8,29.94,SE,137,12.2,20.7,95,0.00,CLR,,0.00,WeatherDisplay:10.37,2013-06-26 09:42:00,
2013-06-26 04:47:00,80.5,78.9,29.94,SSE,157,13.7,18.4,95,0.00,CLR,,0.00,WeatherDisplay:10.37,2013-06-26 09:47:00,
2013-06-26 04:52:00,80.5,78.9,29.94,SE,127,12.3,18.4,95,0.00,CLR,,0.00,WeatherDisplay:10.37,2013-06-26 09:52:00,
2013-06-26 04:57:00,80.5,78.9,29.94,SSE,158,13.3,18.4,95,0.00,CLR,,0.00,WeatherDisplay:10.37,2013-06-26 09:57:00,
2013-06-26 05:02:00,80.3,78.7,29.93,SSE,154,10.7,17.3,95,0.00,CLR,,0.00,WeatherDisplay:10.37,2013-06-26 10:02:00,
2013-06-26 05:08:00,80.4,78.8,29.94,SSE,160,13.0,21.9,95,0.00,CLR,,0.00,WeatherDisplay:10.37,2013-06-26 10:08:00,
2013-06-26 05:13:00,80.3,78.7,29.94,SE,141,12.4,18.4,95,0.00,CLR,,0.00,WeatherDisplay:10.37,2013-06-26 10:13:00,
2013-06-26 05:18:00,80.4,78.8,29.93,SSE,150,14.8,21.9,95,0.00,CLR,,0.00,WeatherDisplay:10.37,2013-06-26 10:18:00,
2013-06-26 05:23:00,80.4,78.8,29.93,SE,133,13.3,18.1,95,0.00,CLR,,0.00,WeatherDisplay:10.37,2013-06-26 10:23:00,
2013-06-26 05:28:00,80.4,78.8,29.93,SE,141,14.8,21.9,95,0.00,CLR,,0.00,WeatherDisplay:10.37,2013-06-26 10:28:00,
2013-06-26 05:33:00,80.4,78.8,29.94,SE,136,12.6,19.6,95,0.00,CLR,,0.00,WeatherDisplay:10.37,2013-06-26 10:33:00,
2013-06-26 05:38:00,80.5,78.9,29.93,SSE,157,14.6,20.7,95,0.00,CLR,,0.00,WeatherDisplay:10.37,2013-06-26 10:38:00,
2013-06-26 05:43:00,80.4,79.2,29.93,SSE,158,13.7,18.4,96,0.00,CLR,,0.00,WeatherDisplay:10.37,2013-06-26 10:43:00,
2013-06-26 05:48:00,80.4,79.2,29.94,SSE,148,12.6,15.0,96,0.00,CLR,,0.00,WeatherDisplay:10.37,2013-06-26 10:48:00,
2013-06-26 05:51:00,80.4,78.8,29.94,SSE,165,13.6,21.9,95,0.00,,,0.00,WeatherDisplay:10.37,2013-06-26 10:51:00,
2013-06-26 05:56:00,80.4,79.2,29.94,ESE,103,13.9,21.0,96,0.00,,,0.00,WeatherDisplay:10.37,2013-06-26 10:56:00,
2013-06-26 06:01:00,80.4,78.8,29.94,SE,127,14.2,21.0,95,0.00,,,0.00,WeatherDisplay:10.37,2013-06-26 11:01:00,
2013-06-26 06:06:00,80.4,79.2,29.95,SSE,164,10.6,17.3,96,0.00,CLR,,0.00,WeatherDisplay:10.37,2013-06-26 11:06:00,
2013-06-26 06:12:00,80.5,79.3,29.95,SSE,168,10.7,17.3,96,0.00,CLR,,0.00,WeatherDisplay:10.37,2013-06-26 11:12:00,
2013-06-26 06:17:00,80.5,79.3,29.95,SE,144,9.2,16.2,96,0.00,CLR,,0.00,WeatherDisplay:10.37,2013-06-26 11:17:00,
2013-06-26 06:22:00,80.4,79.2,29.95,SSE,167,11.2,16.1,96,0.00,CLR,,0.00,WeatherDisplay:10.37,2013-06-26 11:22:00,
2013-06-26 06:27:00,80.5,79.3,29.95,SSE,151,12.1,17.3,96,0.00,CLR,,0.00,WeatherDisplay:10.37,2013-06-26 11:27:00,
2013-06-26 06:32:00,80.5,79.3,29.96,South,175,12.3,17.3,96,0.00,CLR,,0.00,WeatherDisplay:10.37,2013-06-26 11:32:00,
2013-06-26 06:37:00,80.5,79.3,29.95,SSE,152,12.5,17.3,96,0.00,CLR,,0.00,WeatherDisplay:10.37,2013-06-26 11:37:00,
2013-06-26 06:42:00,80.4,79.2,29.95,SE,143,10.8,18.4,96,0.00,CLR,,0.00,WeatherDisplay:10.37,2013-06-26 11:42:00,
2013-06-26 06:47:00,80.5,79.3,29.96,SSE,168,10.0,15.0,96,0.00,CLR,,0.00,WeatherDisplay:10.37,2013-06-26 11:47:00,
2013-06-26 06:52:00,80.4,79.2,29.96,SE,143,9.9,13.8,96,0.00,CLR,,0.00,WeatherDisplay:10.37,2013-06-26 11:52:00,
2013-06-26 06:57:00,80.4,79.2,29.96,SSE,148,9.3,15.0,96,0.00,CLR,,0.00,WeatherDisplay:10.37,2013-06-26 11:57:00,
2013-06-26 07:02:00,80.4,79.2,29.96,SSE,160,8.1,13.8,96,0.00,CLR,,0.00,WeatherDisplay:10.37,2013-06-26 12:02:00,
2013-06-26 07:07:00,80.3,79.1,29.96,SE,144,8.3,12.7,96,0.00,CLR,,0.00,WeatherDisplay:10.37,2013-06-26 12:07:00,
2013-06-26 07:12:00,80.4,79.2,29.96,South,171,9.8,12.7,96,0.00,CLR,,0.00,WeatherDisplay:10.37,2013-06-26 12:12:00,
2013-06-26 07:17:00,80.4,79.2,29.96,SSE,160,11.0,13.8,96,0.00,CLR,,0.00,WeatherDisplay:10.37,2013-06-26 12:17:00,
2013-06-26 07:22:00,80.4,79.2,29.96,SSE,155,9.0,16.2,96,0.00,CLR,,0.00,WeatherDisplay:10.37,2013-06-26 12:22:00,
2013-06-26 07:27:00,80.4,79.2,29.96,SE,131,10.8,15.2,96,0.00,CLR,,0.00,WeatherDisplay:10.37,2013-06-26 12:27:00,
2013-06-26 07:32:00,80.4,79.2,29.96,South,182,9.2,16.1,96,0.00,CLR,,0.00,WeatherDisplay:10.37,2013-06-26 12:32:00,
2013-06-26 07:37:00,80.5,79.3,29.96,SSE,151,10.2,14.2,96,0.00,CLR,,0.00,WeatherDisplay:10.37,2013-06-26 12:37:00,
2013-06-26 07:42:00,80.4,79.2,29.96,South,176,10.6,13.9,96,0.00,CLR,,0.00,WeatherDisplay:10.37,2013-06-26 12:42:00,
2013-06-26 07:47:00,80.4,79.2,29.96,SE,140,9.9,14.4,96,0.00,CLR,,0.00,WeatherDisplay:10.37,2013-06-26 12:47:00,
2013-06-26 07:52:00,80.3,79.1,29.96,South,175,10.5,15.0,96,0.00,CLR,,0.00,WeatherDisplay:10.37,2013-06-26 12:52:00,
2013-06-26 07:57:00,80.5,79.3,29.96,South,169,10.3,16.1,96,0.00,CLR,,0.00,WeatherDisplay:10.37,2013-06-26 12:57:00,
2013-06-26 08:02:00,80.7,79.5,29.96,SE,134,12.9,17.2,96,0.00,CLR,,0.00,WeatherDisplay:10.37,2013-06-26 13:02:00,
2013-06-26 08:07:00,80.7,79.5,29.96,SSE,161,12.8,17.3,96,0.00,CLR,,0.00,WeatherDisplay:10.37,2013-06-26 13:07:00,
2013-06-26 08:12:00,80.7,79.5,29.96,South,169,11.5,18.4,96,0.00,CLR,,0.00,WeatherDisplay:10.37,2013-06-26 13:12:00,
2013-06-26 08:18:00,80.9,79.3,29.96,SSE,152,9.2,16.1,95,0.00,CLR,,0.00,WeatherDisplay:10.37,2013-06-26 13:18:00,
2013-06-26 08:23:00,81.0,79.4,29.96,SE,128,9.4,15.0,95,0.00,CLR,,0.00,WeatherDisplay:10.37,2013-06-26 13:23:00,
2013-06-26 08:28:00,81.1,79.5,29.97,SSE,150,11.4,17.3,95,0.00,CLR,,0.00,WeatherDisplay:10.37,2013-06-26 13:28:00,
2013-06-26 08:33:00,81.2,79.6,29.97,SSE,152,10.3,15.0,95,0.00,CLR,,0.00,WeatherDisplay:10.37,2013-06-26 13:33:00,
2013-06-26 08:38:00,81.5,79.9,29.97,SE,140,10.5,16.1,95,0.00,CLR,,0.00,WeatherDisplay:10.37,2013-06-26 13:38:00,
2013-06-26 08:43:00,81.3,79.4,29.97,South,171,10.6,16.1,94,0.00,CLR,,0.00,WeatherDisplay:10.37,2013-06-26 13:43:00,
2013-06-26 08:48:00,81.4,79.5,29.97,SE,145,11.6,19.6,94,0.00,CLR,,0.00,WeatherDisplay:10.37,2013-06-26 13:48:00,
2013-06-26 08:53:00,81.6,79.4,29.97,SSE,150,10.8,18.4,93,0.00,CLR,,0.00,WeatherDisplay:10.37,2013-06-26 13:53:00,
2013-06-26 08:58:00,81.6,79.4,29.97,SSE,161,12.5,17.3,93,0.00,CLR,,0.00,WeatherDisplay:10.37,2013-06-26 13:58:00,
2013-06-26 09:03:00,81.8,79.6,29.98,SSE,152,12.6,17.3,93,0.00,CLR,,0.00,WeatherDisplay:10.37,2013-06-26 14:03:00,
2013-06-26 09:08:00,81.9,79.3,29.98,SSE,165,11.9,19.6,92,0.00,CLR,,0.00,WeatherDisplay:10.37,2013-06-26 14:08:00,
2013-06-26 09:13:00,82.1,79.5,29.97,South,172,12.0,16.9,92,0.00,CLR,,0.00,WeatherDisplay:10.37,2013-06-26 14:13:00,
2013-06-26 09:18:00,82.2,79.3,29.97,SSE,160,11.8,18.4,91,0.00,CLR,,0.00,WeatherDisplay:10.37,2013-06-26 14:18:00,
2013-06-26 09:24:00,82.3,79.4,29.98,SSE,164,11.3,16.1,91,0.00,CLR,,0.00,WeatherDisplay:10.37,2013-06-26 14:24:00,
2013-06-26 09:29:00,82.3,79.1,29.97,SSE,157,11.6,16.5,90,0.00,CLR,,0.00,WeatherDisplay:10.37,2013-06-26 14:29:00,
2013-06-26 09:34:00,82.4,79.5,29.98,South,188,9.2,16.8,91,0.00,CLR,,0.00,WeatherDisplay:10.37,2013-06-26 14:34:00,
2013-06-26 09:39:00,82.5,79.3,29.98,SSE,147,11.2,15.0,90,0.00,CLR,,0.00,WeatherDisplay:10.37,2013-06-26 14:39:00,
2013-06-26 09:44:00,82.6,79.0,29.98,SE,145,10.9,16.3,89,0.00,CLR,,0.00,WeatherDisplay:10.37,2013-06-26 14:44:00,
2013-06-26 09:49:00,82.6,79.0,29.98,SSE,150,11.4,17.3,89,0.00,CLR,,0.00,WeatherDisplay:10.37,2013-06-26 14:49:00,
2013-06-26 09:54:00,82.7,78.8,29.98,SSE,160,9.7,17.3,88,0.00,CLR,,0.00,WeatherDisplay:10.37,2013-06-26 14:54:00,
2013-06-26 09:59:00,82.8,78.9,29.98,SSE,150,12.1,18.4,88,0.00,CLR,,0.00,WeatherDisplay:10.37,2013-06-26 14:59:00,
2013-06-26 10:04:00,83.0,79.1,29.98,SSE,151,8.6,16.1,88,0.00,CLR,,0.00,WeatherDisplay:10.37,2013-06-26 15:04:00,
2013-06-26 10:09:00,83.4,79.1,29.98,South,169,9.8,15.2,87,0.00,CLR,,0.00,WeatherDisplay:10.37,2013-06-26 15:09:00,
2013-06-26 10:14:00,83.4,78.8,29.98,SSE,154,10.9,16.1,86,0.00,CLR,,0.00,WeatherDisplay:10.37,2013-06-26 15:14:00,
2013-06-26 10:19:00,83.5,79.2,29.98,SSE,165,7.6,12.7,87,0.00,CLR,,0.00,WeatherDisplay:10.37,2013-06-26 15:19:00,
2013-06-26 10:24:00,83.5,78.9,29.98,SE,137,9.4,12.9,86,0.00,CLR,,0.00,WeatherDisplay:10.37,2013-06-26 15:24:00,
2013-06-26 10:29:00,83.5,78.9,29.98,SSE,157,11.6,15.8,86,0.00,CLR,,0.00,WeatherDisplay:10.37,2013-06-26 15:29:00,
2013-06-26 10:34:00,83.5,78.9,29.98,South,182,10.3,16.1,86,0.00,CLR,,0.00,WeatherDisplay:10.37,2013-06-26 15:34:00,
2013-06-26 10:39:00,83.5,78.5,29.98,South,172,10.2,15.2,85,0.00,CLR,,0.00,WeatherDisplay:10.37,2013-06-26 15:39:00,
2013-06-26 10:44:00,83.5,78.9,29.98,SE,133,9.4,15.2,86,0.00,CLR,,0.00,WeatherDisplay:10.37,2013-06-26 15:44:00,
2013-06-26 10:49:00,83.6,78.6,29.98,SE,137,11.4,16.1,85,0.00,CLR,,0.00,WeatherDisplay:10.37,2013-06-26 15:49:00,
2013-06-26 10:54:00,83.7,78.7,29.99,ESE,121,10.3,13.8,85,0.00,CLR,,0.00,WeatherDisplay:10.37,2013-06-26 15:54:00,
2013-06-26 10:59:00,83.7,78.3,29.98,SE,145,10.8,15.4,84,0.00,CLR,,0.00,WeatherDisplay:10.37,2013-06-26 15:59:00,
2013-06-26 11:04:00,83.7,78.3,29.98,SSE,160,10.8,20.7,84,0.00,CLR,,0.00,WeatherDisplay:10.37,2013-06-26 16:04:00,
2013-06-26 11:09:00,83.8,78.4,29.98,SE,141,11.6,17.3,84,0.00,CLR,,0.00,WeatherDisplay:10.37,2013-06-26 16:09:00,
2013-06-26 11:14:00,83.6,77.9,29.99,SE,134,13.5,20.7,83,0.00,CLR,,0.00,WeatherDisplay:10.37,2013-06-26 16:14:00,
2013-06-26 11:19:00,83.7,78.0,29.99,SSE,151,13.0,19.0,83,0.00,CLR,,0.00,WeatherDisplay:10.37,2013-06-26 16:19:00,
2013-06-26 11:24:00,83.8,78.4,29.98,SE,134,11.1,17.3,84,0.00,CLR,,0.00,WeatherDisplay:10.37,2013-06-26 16:24:00,
2013-06-26 11:29:00,84.1,78.4,29.98,SE,143,9.9,16.1,83,0.00,CLR,,0.00,WeatherDisplay:10.37,2013-06-26 16:29:00,
2013-06-26 11:34:00,84.4,78.3,29.98,SE,134,10.6,17.5,82,0.00,CLR,,0.00,WeatherDisplay:10.37,2013-06-26 16:34:00,
2013-06-26 11:39:00,84.4,77.9,29.98,SE,140,14.2,19.6,81,0.00,CLR,,0.00,WeatherDisplay:10.37,2013-06-26 16:39:00,
2013-06-26 11:44:00,84.4,77.9,29.98,SSE,147,11.6,19.6,81,0.00,CLR,,0.00,WeatherDisplay:10.37,2013-06-26 16:44:00,
2013-06-26 11:49:00,84.5,77.6,29.99,SE,138,14.7,20.5,80,0.00,CLR,,0.00,WeatherDisplay:10.37,2013-06-26 16:49:00,
2013-06-26 11:54:00,84.4,77.2,29.98,SE,137,14.9,20.0,79,0.00,CLR,,0.00,WeatherDisplay:10.37,2013-06-26 16:54:00,
2013-06-26 11:59:00,84.6,77.4,29.99,SE,130,12.1,19.1,79,0.00,CLR,,0.00,WeatherDisplay:10.37,2013-06-26 16:59:00,
2013-06-26 12:04:00,84.7,77.1,29.98,SE,136,14.9,23.0,78,0.00,CLR,,0.00,WeatherDisplay:10.37,2013-06-26 17:04:00,
2013-06-26 12:09:00,85.0,77.0,29.99,SSE,147,12.9,19.6,77,0.00,CLR,,0.00,WeatherDisplay:10.37,2013-06-26 17:09:00,
2013-06-26 12:14:00,84.9,76.5,29.98,SSE,162,12.4,16.6,76,0.00,CLR,,0.00,WeatherDisplay:10.37,2013-06-26 17:14:00,
2013-06-26 12:19:00,85.2,77.6,29.98,SE,145,12.6,19.2,78,0.00,CLR,,0.00,WeatherDisplay:10.37,2013-06-26 17:19:00,
2013-06-26 12:24:00,85.1,76.7,29.99,SSE,157,12.9,17.3,76,0.00,CLR,,0.00,WeatherDisplay:10.37,2013-06-26 17:24:00,
2013-06-26 12:29:00,85.5,77.1,29.98,SE,130,12.7,17.9,76,0.00,CLR,,0.00,WeatherDisplay:10.37,2013-06-26 17:29:00,
2013-06-26 12:34:00,85.5,76.3,29.98,SE,133,13.2,17.8,74,0.00,CLR,,0.00,WeatherDisplay:10.37,2013-06-26 17:34:00,
2013-06-26 12:39:00,85.5,76.7,29.98,South,172,11.5,17.3,75,0.00,CLR,,0.00,WeatherDisplay:10.37,2013-06-26 17:39:00,
2013-06-26 12:44:00,85.5,76.3,29.98,SE,130,14.0,21.9,74,0.00,CLR,,0.00,WeatherDisplay:10.37,2013-06-26 17:44:00,
2013-06-26 12:49:00,85.8,77.0,29.98,SE,137,11.6,20.7,75,0.00,CLR,,0.00,WeatherDisplay:10.37,2013-06-26 17:49:00,
2013-06-26 12:54:00,85.8,76.5,29.97,SSE,154,13.1,19.8,74,0.00,CLR,,0.00,WeatherDisplay:10.37,2013-06-26 17:54:00,
2013-06-26 12:59:00,85.7,76.5,29.97,ESE,112,12.8,19.6,74,0.00,CLR,,0.00,WeatherDisplay:10.37,2013-06-26 17:59:00,
2013-06-26 13:04:00,85.6,76.8,29.97,SE,128,11.6,19.6,75,0.00,CLR,,0.00,WeatherDisplay:10.37,2013-06-26 18:04:00,
2013-06-26 13:09:00,85.7,76.9,29.98,SSE,162,13.5,18.4,75,0.00,CLR,,0.00,WeatherDisplay:10.37,2013-06-26 18:09:00,
2013-06-26 13:14:00,85.8,77.0,29.97,SE,131,11.8,17.2,75,0.00,CLR,,0.00,WeatherDisplay:10.37,2013-06-26 18:14:00,
2013-06-26 13:19:00,85.8,76.5,29.97,SSE,152,13.6,20.7,74,0.00,CLR,,0.00,WeatherDisplay:10.37,2013-06-26 18:19:00,
2013-06-26 13:24:00,85.8,76.5,29.97,SSE,148,13.7,20.7,74,0.00,CLR,,0.00,WeatherDisplay:10.37,2013-06-26 18:24:00,
2013-06-26 13:29:00,85.9,76.2,29.97,SSE,147,14.0,19.6,73,0.00,CLR,,0.00,WeatherDisplay:10.37,2013-06-26 18:29:00,
2013-06-26 13:34:00,85.9,76.2,29.97,SSE,162,13.4,20.0,73,0.00,CLR,,0.00,WeatherDisplay:10.37,2013-06-26 18:34:00,
2013-06-26 13:39:00,86.1,76.4,29.96,SE,137,13.9,17.3,73,0.00,CLR,,0.00,WeatherDisplay:10.37,2013-06-26 18:39:00,
2013-06-26 13:44:00,86.2,76.5,29.96,ESE,113,13.3,20.7,73,0.00,CLR,,0.00,WeatherDisplay:10.37,2013-06-26 18:44:00,
2013-06-26 13:49:00,86.1,75.6,29.96,SSE,152,14.2,20.8,71,0.00,CLR,,0.00,WeatherDisplay:10.37,2013-06-26 18:49:00,
2013-06-26 13:54:00,86.0,75.9,29.96,SE,137,13.6,19.6,72,0.00,CLR,,0.00,WeatherDisplay:10.37,2013-06-26 18:54:00,
2013-06-26 14:00:00,86.2,76.1,29.96,ESE,106,12.4,17.3,72,0.00,CLR,,0.00,WeatherDisplay:10.37,2013-06-26 19:00:00,
2013-06-26 14:05:00,86.4,75.5,29.96,SE,128,13.6,24.2,70,0.00,CLR,,0.00,WeatherDisplay:10.37,2013-06-26 19:05:00,
2013-06-26 14:10:00,86.3,75.4,29.96,SE,141,13.9,21.9,70,0.00,CLR,,0.00,WeatherDisplay:10.37,2013-06-26 19:10:00,
2013-06-26 14:15:00,86.4,75.9,29.96,ESE,117,11.1,22.3,71,0.00,CLR,,0.00,WeatherDisplay:10.37,2013-06-26 19:15:00,
2013-06-26 14:20:00,86.5,75.5,29.96,SE,143,11.2,22.3,70,0.00,CLR,,0.00,WeatherDisplay:10.37,2013-06-26 19:20:00,
2013-06-26 14:25:00,86.4,75.9,29.96,SE,131,12.7,17.3,71,0.00,CLR,,0.00,WeatherDisplay:10.37,2013-06-26 19:25:00,
2013-06-26 14:30:00,86.5,76.4,29.95,SE,140,16.4,23.0,72,0.00,,,0.00,WeatherDisplay:10.37,2013-06-26 19:30:00,
2013-06-26 14:35:00,86.5,76.4,29.95,SE,140,15.1,18.4,72,0.00,,,0.00,WeatherDisplay:10.37,2013-06-26 19:35:00,
2013-06-26 14:40:00,86.5,76.0,29.95,SE,137,13.7,19.6,71,0.00,,,0.00,WeatherDisplay:10.37,2013-06-26 19:40:00,
2013-06-26 14:45:00,86.6,76.5,29.95,SSE,150,10.5,20.7,72,0.00,CLR,,0.00,WeatherDisplay:10.37,2013-06-26 19:45:00,
2013-06-26 14:51:00,87.1,77.4,29.95,SSE,147,11.0,18.4,73,0.00,CLR,,0.00,WeatherDisplay:10.37,2013-06-26 19:51:00,
2013-06-26 14:56:00,87.3,76.7,29.95,SE,141,11.3,16.1,71,0.00,CLR,,0.00,WeatherDisplay:10.37,2013-06-26 19:56:00,
2013-06-26 15:01:00,87.1,76.5,29.95,SE,145,13.3,19.6,71,0.00,CLR,,0.00,WeatherDisplay:10.37,2013-06-26 20:01:00,
2013-06-26 15:06:00,87.3,76.7,29.95,SE,136,9.9,18.9,71,0.00,CLR,,0.00,WeatherDisplay:10.37,2013-06-26 20:06:00,
2013-06-26 15:11:00,87.5,76.5,29.95,East,99,10.3,16.1,70,0.00,CLR,,0.00,WeatherDisplay:10.37,2013-06-26 20:11:00,
2013-06-26 15:16:00,87.7,76.7,29.94,SE,126,11.8,18.6,70,0.00,CLR,,0.00,WeatherDisplay:10.37,2013-06-26 20:16:00,
2013-06-26 15:21:00,87.7,75.8,29.94,SE,127,11.9,17.3,68,0.00,CLR,,0.00,WeatherDisplay:10.37,2013-06-26 20:21:00,
2013-06-26 15:26:00,87.9,76.5,29.94,ESE,120,10.3,16.1,69,0.00,CLR,,0.00,WeatherDisplay:10.37,2013-06-26 20:26:00,
2013-06-26 15:31:00,88.3,76.8,29.94,ESE,123,9.9,15.4,69,0.00,CLR,,0.00,WeatherDisplay:10.37,2013-06-26 20:31:00,
2013-06-26 15:36:00,88.0,76.5,29.94,SE,141,12.1,16.1,69,0.00,CLR,,0.00,WeatherDisplay:10.37,2013-06-26 20:36:00,
2013-06-26 15:41:00,87.8,76.8,29.94,ESE,119,10.7,17.5,70,0.00,CLR,,0.00,WeatherDisplay:10.37,2013-06-26 20:41:00,
2013-06-26 15:46:00,87.9,76.9,29.94,SE,130,11.0,19.2,70,0.00,CLR,,0.00,WeatherDisplay:10.37,2013-06-26 20:46:00,
2013-06-26 15:51:00,87.8,76.4,29.94,ESE,123,11.0,19.3,69,0.00,CLR,,0.00,WeatherDisplay:10.37,2013-06-26 20:51:00,
2013-06-26 15:56:00,87.8,76.8,29.94,SE,128,11.2,15.0,70,0.00,CLR,,0.00,WeatherDisplay:10.37,2013-06-26 20:56:00,
2013-06-26 16:02:00,87.9,76.5,29.93,ESE,113,12.0,17.3,69,0.00,CLR,,0.00,WeatherDisplay:10.37,2013-06-26 21:02:00,
2013-06-26 16:07:00,88.1,76.6,29.93,ESE,113,11.5,18.4,69,0.00,CLR,,0.00,WeatherDisplay:10.37,2013-06-26 21:07:00,
2013-06-26 16:12:00,88.4,76.9,29.93,ESE,109,11.4,18.4,69,0.00,CLR,,0.00,WeatherDisplay:10.37,2013-06-26 21:12:00,
2013-06-26 16:17:00,88.4,76.9,29.93,ESE,119,11.1,19.9,69,0.00,CLR,,0.00,WeatherDisplay:10.37,2013-06-26 21:17:00,
2013-06-26 16:22:00,88.2,76.7,29.93,SE,138,12.6,18.4,69,0.00,CLR,,0.00,WeatherDisplay:10.37,2013-06-26 21:22:00,
2013-06-26 16:27:00,88.2,77.2,29.93,ESE,112,11.3,21.3,70,0.00,CLR,,0.00,WeatherDisplay:10.37,2013-06-26 21:27:00,
2013-06-26 16:32:00,88.2,76.7,29.93,ESE,113,11.8,21.9,69,0.00,CLR,,0.00,WeatherDisplay:10.37,2013-06-26 21:32:00,
2013-06-26 16:37:00,88.4,76.9,29.93,ESE,109,15.2,23.5,69,0.00,CLR,,0.00,WeatherDisplay:10.37,2013-06-26 21:37:00,
2013-06-26 16:42:00,88.5,77.0,29.93,ESE,103,10.5,17.3,69,0.00,CLR,,0.00,WeatherDisplay:10.37,2013-06-26 21:42:00,
2013-06-26 16:47:00,88.4,77.4,29.93,East,97,15.2,24.6,70,0.00,CLR,,0.00,WeatherDisplay:10.37,2013-06-26 21:47:00,
2013-06-26 16:53:00,88.0,76.5,29.93,East,95,15.8,23.0,69,0.00,,,0.00,WeatherDisplay:10.37,2013-06-26 21:53:00,
2013-06-26 16:58:00,87.9,76.9,29.93,East,89,12.2,22.2,70,0.00,,,0.00,WeatherDisplay:10.37,2013-06-26 21:58:00,
2013-06-26 17:03:00,87.6,76.6,29.92,ESE,103,12.8,21.2,70,0.00,CLR,,0.00,WeatherDisplay:10.37,2013-06-26 22:03:00,
2013-06-26 17:08:00,87.9,76.9,29.92,ESE,110,15.7,23.0,70,0.00,CLR,,0.00,WeatherDisplay:10.37,2013-06-26 22:08:00,
2013-06-26 17:13:00,88.0,77.4,29.92,ESE,103,13.7,21.9,71,0.00,CLR,,0.00,WeatherDisplay:10.37,2013-06-26 22:13:00,
2013-06-26 17:18:00,88.0,77.4,29.92,SE,137,13.9,25.3,71,0.00,CLR,,0.00,WeatherDisplay:10.37,2013-06-26 22:18:00,
2013-06-26 17:23:00,87.9,77.3,29.92,SE,126,11.8,19.6,71,0.00,CLR,,0.00,WeatherDisplay:10.37,2013-06-26 22:23:00,
2013-06-26 17:28:00,87.7,77.5,29.92,ESE,123,11.5,21.9,72,0.00,CLR,,0.00,WeatherDisplay:10.37,2013-06-26 22:28:00,
2013-06-26 17:33:00,87.6,77.5,29.92,SE,133,13.6,24.2,72,0.00,CLR,,0.00,WeatherDisplay:10.37,2013-06-26 22:33:00,
2013-06-26 17:38:00,87.5,77.8,29.92,SE,140,13.6,21.9,73,0.00,CLR,,0.00,WeatherDisplay:10.37,2013-06-26 22:38:00,
2013-06-26 17:43:00,87.3,78.0,29.92,ESE,117,15.4,20.7,74,0.00,,,0.00,WeatherDisplay:10.37,2013-06-26 22:43:00,
2013-06-26 17:48:00,87.2,77.9,29.92,ESE,120,14.0,19.6,74,0.00,,,0.00,WeatherDisplay:10.37,2013-06-26 22:48:00,
2013-06-26 17:53:00,87.0,77.7,29.92,East,96,13.4,24.5,74,0.00,,,0.00,WeatherDisplay:10.37,2013-06-26 22:53:00,
2013-06-26 17:58:00,87.2,77.9,29.92,SE,126,11.1,24.2,74,0.00,CLR,,0.00,WeatherDisplay:10.37,2013-06-26 22:58:00,
2013-06-26 18:03:00,87.1,77.8,29.92,ESE,120,16.5,25.5,74,0.00,CLR,,0.00,WeatherDisplay:10.37,2013-06-26 23:03:00,
2013-06-26 18:08:00,87.2,78.3,29.92,ESE,119,14.0,23.9,75,0.00,,,0.00,WeatherDisplay:10.37,2013-06-26 23:08:00,
2013-06-26 18:13:00,87.1,78.2,29.92,East,93,15.9,21.6,75,0.00,,,0.00,WeatherDisplay:10.37,2013-06-26 23:13:00,
2013-06-26 18:18:00,87.0,78.5,29.92,East,95,14.2,20.7,76,0.00,,,0.00,WeatherDisplay:10.37,2013-06-26 23:18:00,
2013-06-26 18:23:00,86.6,78.5,29.92,ESE,121,13.1,21.6,77,0.00,CLR,,0.00,WeatherDisplay:10.37,2013-06-26 23:23:00,
2013-06-26 18:28:00,86.2,78.5,29.92,SE,127,12.5,21.1,78,0.00,CLR,,0.00,WeatherDisplay:10.37,2013-06-26 23:28:00,
2013-06-26 18:33:00,86.0,78.3,29.91,ESE,113,13.4,24.2,78,0.00,CLR,,0.00,WeatherDisplay:10.37,2013-06-26 23:33:00,
2013-06-26 18:38:00,85.8,78.9,29.91,ESE,102,12.3,20.3,80,0.00,CLR,,0.00,WeatherDisplay:10.37,2013-06-26 23:38:00,
2013-06-26 18:43:00,85.9,78.6,29.91,SE,127,14.4,23.5,79,0.00,CLR,,0.00,WeatherDisplay:10.37,2013-06-26 23:43:00,
2013-06-26 18:48:00,85.6,78.3,29.91,ESE,123,14.8,19.6,79,0.00,CLR,,0.00,WeatherDisplay:10.37,2013-06-26 23:48:00,
2013-06-26 18:54:00,85.3,78.8,29.91,ESE,112,12.8,18.4,81,0.00,CLR,,0.00,WeatherDisplay:10.37,2013-06-26 23:54:00,
2013-06-26 18:59:00,85.3,78.8,29.91,ESE,110,15.6,23.0,81,0.00,CLR,,0.00,WeatherDisplay:10.37,2013-06-26 23:59:00,
2013-06-26 19:04:00,85.0,78.9,29.91,ESE,121,15.6,23.0,82,0.00,,,0.00,WeatherDisplay:10.37,2013-06-27 00:04:00,
2013-06-26 19:09:00,85.0,78.9,29.91,SE,141,13.8,23.7,82,0.00,,,0.00,WeatherDisplay:10.37,2013-06-27 00:09:00,
2013-06-26 19:14:00,84.9,79.2,29.92,SE,145,13.9,19.6,83,0.00,,,0.00,WeatherDisplay:10.37,2013-06-27 00:14:00,
2013-06-26 19:19:00,84.7,79.0,29.92,SE,127,13.2,23.0,83,0.00,CLR,,0.00,WeatherDisplay:10.37,2013-06-27 00:19:00,
2013-06-26 19:24:00,84.5,79.1,29.91,ESE,121,11.6,18.4,84,0.00,CLR,,0.00,WeatherDisplay:10.37,2013-06-27 00:24:00,
2013-06-26 19:29:00,84.4,79.0,29.91,East,97,10.7,18.4,84,0.00,CLR,,0.00,WeatherDisplay:10.37,2013-06-27 00:29:00,
2013-06-26 19:34:00,84.5,78.8,29.92,SE,140,13.7,20.7,83,0.00,CLR,,0.00,WeatherDisplay:10.37,2013-06-27 00:34:00,
2013-06-26 19:39:00,84.3,78.9,29.92,SSE,152,11.2,19.2,84,0.00,CLR,,0.00,WeatherDisplay:10.37,2013-06-27 00:39:00,
2013-06-26 19:44:00,83.9,78.5,29.92,ESE,107,10.9,23.2,84,0.00,CLR,,0.00,WeatherDisplay:10.37,2013-06-27 00:44:00,
2013-06-26 19:49:00,83.7,78.7,29.92,ESE,104,11.3,22.3,85,0.00,CLR,,0.00,WeatherDisplay:10.37,2013-06-27 00:49:00,
2013-06-26 19:54:00,83.4,78.8,29.92,SE,127,10.7,22.3,86,0.00,CLR,,0.00,WeatherDisplay:10.37,2013-06-27 00:54:00,
2013-06-26 19:59:00,83.4,79.1,29.92,ESE,123,9.4,21.9,87,0.00,CLR,,0.00,WeatherDisplay:10.37,2013-06-27 00:59:00,
2013-06-26 20:04:00,83.3,78.7,29.92,East,79,14.6,22.6,86,0.00,CLR,,0.00,WeatherDisplay:10.37,2013-06-27 01:04:00,
2013-06-26 20:09:00,83.3,79.0,29.92,ESE,119,13.2,20.0,87,0.00,CLR,,0.00,WeatherDisplay:10.37,2013-06-27 01:09:00,
2013-06-26 20:14:00,83.1,78.8,29.92,ESE,110,12.0,17.7,87,0.00,CLR,,0.00,WeatherDisplay:10.37,2013-06-27 01:14:00,
2013-06-26 20:20:00,83.0,78.7,29.92,ESE,113,10.9,17.3,87,0.00,CLR,,0.00,WeatherDisplay:10.37,2013-06-27 01:20:00,
2013-06-26 20:25:00,82.9,78.6,29.92,SSE,148,11.3,18.2,87,0.00,CLR,,0.00,WeatherDisplay:10.37,2013-06-27 01:25:00,
2013-06-26 20:30:00,82.8,78.9,29.92,ESE,116,9.3,17.3,88,0.00,CLR,,0.00,WeatherDisplay:10.37,2013-06-27 01:30:00,
2013-06-26 20:35:00,82.7,78.8,29.92,ESE,121,12.5,20.7,88,0.00,CLR,,0.00,WeatherDisplay:10.37,2013-06-27 01:35:00,
2013-06-26 20:40:00,82.6,78.7,29.92,SE,140,13.1,19.6,88,0.00,CLR,,0.00,WeatherDisplay:10.37,2013-06-27 01:40:00,
2013-06-26 20:45:00,82.7,79.5,29.92,SE,136,9.5,16.9,90,0.00,CLR,,0.00,WeatherDisplay:10.37,2013-06-27 01:45:00,
2013-06-26 20:50:00,82.5,79.3,29.92,SSE,152,10.6,17.3,90,0.00,CLR,,0.00,WeatherDisplay:10.37,2013-06-27 01:50:00,
2013-06-26 20:55:00,82.5,79.3,29.93,SE,137,9.6,15.0,90,0.00,CLR,,0.00,WeatherDisplay:10.37,2013-06-27 01:55:00,
2013-06-26 21:00:00,82.4,79.5,29.93,SE,134,11.2,13.8,91,0.00,CLR,,0.00,WeatherDisplay:10.37,2013-06-27 02:00:00,
2013-06-26 21:05:00,82.2,79.3,29.93,SE,141,10.9,20.7,91,0.00,CLR,,0.00,WeatherDisplay:10.37,2013-06-27 02:05:00,
2013-06-26 21:10:00,82.3,79.4,29.93,SE,141,11.1,16.1,91,0.00,CLR,,0.00,WeatherDisplay:10.37,2013-06-27 02:10:00,
2013-06-26 21:15:00,82.1,79.2,29.93,ESE,112,12.3,18.2,91,0.00,CLR,,0.00,WeatherDisplay:10.37,2013-06-27 02:15:00,
2013-06-26 21:20:00,82.1,79.5,29.93,SE,128,11.8,18.5,92,0.00,CLR,,0.00,WeatherDisplay:10.37,2013-06-27 02:20:00,
2013-06-26 21:25:00,82.1,79.5,29.93,ESE,110,7.9,18.4,92,0.00,CLR,,0.00,WeatherDisplay:10.37,2013-06-27 02:25:00,
2013-06-26 21:30:00,81.9,79.3,29.93,SE,137,11.7,18.4,92,0.00,CLR,,0.00,WeatherDisplay:10.37,2013-06-27 02:30:00,
2013-06-26 21:35:00,81.9,79.3,29.93,SSE,162,12.0,17.5,92,0.00,CLR,,0.00,WeatherDisplay:10.37,2013-06-27 02:35:00,
2013-06-26 21:40:00,81.9,79.3,29.94,SE,136,12.2,18.4,92,0.00,CLR,,0.00,WeatherDisplay:10.37,2013-06-27 02:40:00,
2013-06-26 21:45:00,81.9,79.3,29.94,SE,128,11.2,16.1,92,0.00,CLR,,0.00,WeatherDisplay:10.37,2013-06-27 02:45:00,
2013-06-26 21:50:00,81.9,79.3,29.94,SE,137,12.2,19.2,92,0.00,CLR,,0.00,WeatherDisplay:10.37,2013-06-27 02:50:00,
2013-06-26 21:55:00,81.9,79.3,29.94,SE,131,10.0,18.4,92,0.00,CLR,,0.00,WeatherDisplay:10.37,2013-06-27 02:55:00,
2013-06-26 22:00:00,81.8,79.2,29.94,SSE,162,10.0,16.1,92,0.00,CLR,,0.00,WeatherDisplay:10.37,2013-06-27 03:00:00,
2013-06-26 22:05:00,81.9,79.3,29.94,SSE,148,10.2,15.3,92,0.00,CLR,,0.00,WeatherDisplay:10.37,2013-06-27 03:05:00,
2013-06-26 22:10:00,81.9,79.7,29.95,ESE,120,10.9,16.7,93,0.00,CLR,,0.00,WeatherDisplay:10.37,2013-06-27 03:10:00,
2013-06-26 22:15:00,81.8,79.6,29.95,SE,143,11.6,17.2,93,0.00,CLR,,0.00,WeatherDisplay:10.37,2013-06-27 03:15:00,
2013-06-26 22:20:00,81.7,79.5,29.95,SE,128,12.2,18.4,93,0.00,CLR,,0.00,WeatherDisplay:10.37,2013-06-27 03:20:00,
2013-06-26 22:25:00,81.5,79.3,29.95,SSE,161,11.9,17.3,93,0.00,CLR,,0.00,WeatherDisplay:10.37,2013-06-27 03:25:00,
2013-06-26 22:30:00,81.5,79.6,29.95,SSE,150,11.3,19.2,94,0.00,CLR,,0.00,WeatherDisplay:10.37,2013-06-27 03:30:00,
2013-06-26 22:35:00,81.4,79.2,29.95,ESE,103,9.7,18.4,93,0.00,CLR,,0.00,WeatherDisplay:10.37,2013-06-27 03:35:00,
2013-06-26 22:41:00,81.4,79.2,29.95,SE,133,9.7,23.0,93,0.00,CLR,,0.00,WeatherDisplay:10.37,2013-06-27 03:41:00,
2013-06-26 22:46:00,81.4,79.2,29.95,SE,145,11.2,17.6,93,0.00,CLR,,0.00,WeatherDisplay:10.37,2013-06-27 03:46:00,
2013-06-26 22:51:00,81.5,78.9,29.96,SSE,161,11.3,17.3,92,0.00,CLR,,0.00,WeatherDisplay:10.37,2013-06-27 03:51:00,
2013-06-26 22:56:00,81.3,78.8,29.96,SE,134,9.8,18.4,92,0.00,CLR,,0.00,WeatherDisplay:10.37,2013-06-27 03:56:00,
2013-06-26 23:01:00,81.4,78.9,29.96,ESE,123,12.6,19.8,92,0.00,CLR,,0.00,WeatherDisplay:10.37,2013-06-27 04:01:00,
2013-06-26 23:02:00,81.3,78.4,29.96,South,176,11.0,19.6,91,0.00,CLR,,0.00,WeatherDisplay:10.37,2013-06-27 04:02:00,
2013-06-26 23:03:00,81.4,78.5,29.96,SE,138,10.3,15.0,91,0.00,CLR,,0.00,WeatherDisplay:10.37,2013-06-27 04:03:00,
2013-06-26 23:04:00,81.4,78.5,29.96,SE,126,11.2,17.3,91,0.00,CLR,,0.00,WeatherDisplay:10.37,2013-06-27 04:04:00,
2013-06-26 23:09:00,81.4,78.5,29.96,SE,143,11.8,18.4,91,0.00,CLR,,0.00,WeatherDisplay:10.37,2013-06-27 04:09:00,
2013-06-26 23:14:00,81.5,78.3,29.96,ESE,123,0.0,18.4,90,0.00,CLR,,0.00,WeatherDisplay:10.37,2013-06-27 04:14:00,
2013-06-26 23:19:00,81.4,78.2,29.96,SSE,152,11.1,20.7,90,0.00,,,0.00,WeatherDisplay:10.37,2013-06-27 04:19:00,
2013-06-26 23:24:00,81.4,78.2,29.96,ESE,119,12.9,23.0,90,0.00,,,0.00,WeatherDisplay:10.37,2013-06-27 04:24:00,
2013-06-26 23:30:00,81.5,78.3,29.97,SE,140,11.5,19.6,90,0.00,,,0.00,WeatherDisplay:10.37,2013-06-27 04:30:00,
2013-06-26 23:35:00,81.5,78.6,29.97,SE,138,11.9,18.4,91,0.00,CLR,,0.00,WeatherDisplay:10.37,2013-06-27 04:35:00,
2013-06-26 23:40:00,81.5,78.6,29.97,SSE,157,12.4,16.1,91,0.00,CLR,,0.00,WeatherDisplay:10.37,2013-06-27 04:40:00,
2013-06-26 23:45:00,81.4,78.9,29.97,SE,131,12.5,17.4,92,0.00,CLR,,0.00,WeatherDisplay:10.37,2013-06-27 04:45:00,
2013-06-26 23:50:00,81.3,78.4,29.97,SE,141,13.2,18.4,91,0.00,CLR,,0.00,WeatherDisplay:10.37,2013-06-27 04:50:00,
2013-06-26 23:55:00,81.3,78.4,29.97,SE,141,12.7,19.6,91,0.00,CLR,,0.00,WeatherDisplay:10.37,2013-06-27 04:55:00,